Point Lay, AK

8:43 PM AKST on February 20, 2018 (GMT -0900)
Point Lay

Weather History for PPIZ - March, 2014

Change the Weather History Date:

Sunday, March 23, 2014

  Actual Average Record
Temperature  
Mean Temperature 2 °F -  
Max Temperature 10 °F 0 °F 32 °F (1998)
Min Temperature -6 °F -11 °F -35 °F (2007)
Degree Days  
Heating Degree Days 63    
Moisture  
Dew Point -5 °F    
Average Humidity 71    
Maximum Humidity 78    
Minimum Humidity 66    
Precipitation  
Precipitation 0.00 in - - ()
Sea Level Pressure  
Sea Level Pressure 30.55 in    
Wind  
Wind Speed 8 mph (East)    
Max Wind Speed 16 mph    
Max Gust Speed -    
Visibility 10 miles    
Events      
Averages and records for this station are not official NWS values.
T = Trace of Precipitation, MM = Missing Value Source: NWS Daily Summary

Daily Weather History Graph

Daily Weather History Graph

Search for Another Location

Airport or City:

Trip Planner

Search our weather history database for the weather conditions in past years. The results will help you decide how hot, cold, wet, or windy it might be!

Date:

Astronomy

Mar. 23, 2014 Rise Set
Actual Time 8:36 AM AKDT 9:23 PM AKDT
Civil Twilight 7:34 AM AKDT 10:24 PM AKDT
Nautical Twilight 6:15 AM AKDT 11:45 PM AKDT
Astronomical Twilight 4:15 AM AKDT 1:54 AM AKDT
Moon 7:12 AM AKDT (3/23) 10:08 AM AKDT (3/23)
Length of Visible Light 14h 49m
Length of Day
12h 47m
Waning Gibbous, 53% of the Moon is Illuminated
Mar 23
Waning Gibbous
Mar 23
Last Quarter
Mar 30
New
Apr 7
First Quarter
Apr 14
Full

Hourly Weather History & Observations

Time (AKDT) Temp. Windchill Dew Point Humidity Pressure Visibility Wind Dir Wind Speed Gust Speed Precip Events Conditions
12:56 AM 4.1 °F -8.0 °F -4.0 °F 69% 30.62 in 10.0 mi SSE 6.9 mph - N/A   Clear
1:56 AM 1.0 °F -10.3 °F -6.0 °F 72% 30.62 in 10.0 mi SE 5.8 mph - N/A   Clear
2:56 AM 0.1 °F -14.0 °F -6.9 °F 72% 30.62 in 10.0 mi SSE 8.1 mph - N/A   Clear
3:56 AM 0.1 °F -14.0 °F -8.0 °F 69% 30.62 in 10.0 mi SE 8.1 mph - N/A   Clear
4:56 AM -1.8 °F - -8.9 °F 72% 30.61 in 10.0 mi North - - N/A   Clear
5:56 AM 0.1 °F -16.0 °F -8.0 °F 69% 30.59 in 10.0 mi SE 10.4 mph - N/A   Clear
6:56 AM 1.0 °F -11.7 °F -8.0 °F 66% 30.59 in 10.0 mi SE 6.9 mph - N/A   Clear
7:56 AM 1.0 °F -11.7 °F -6.9 °F 69% 30.59 in 10.0 mi ESE 6.9 mph - N/A   Clear
8:56 AM -0.9 °F -12.7 °F -8.0 °F 72% 30.58 in 10.0 mi ESE 5.8 mph - N/A   Clear
9:56 AM -6.9 °F -19.7 °F -13.9 °F 72% 30.58 in 10.0 mi East 5.8 mph - N/A   Clear
10:56 AM 0.1 °F -12.8 °F -8.9 °F 66% 30.57 in 10.0 mi ESE 6.9 mph - N/A   Clear
11:56 AM -4.9 °F -15.6 °F -11.9 °F 72% 30.57 in 10.0 mi NE 4.6 mph - N/A   Clear
12:56 PM -2.2 °F -14.2 °F -7.6 °F 78% 30.55 in - ENE 5.8 mph - N/A   Clear
1:56 PM 3.0 °F -9.3 °F -4.9 °F 70% 30.56 in 10.0 mi East 6.9 mph - N/A   Clear
2:56 PM 5.0 °F -8.1 °F -1.8 °F 73% 30.55 in 10.0 mi East 8.1 mph - N/A   Clear
3:56 PM 9.1 °F -0.7 °F 1.0 °F 70% 30.55 in 10.0 mi East 5.8 mph - N/A   Clear
4:56 PM 10.0 °F -0.9 °F 2.1 °F 70% 30.53 in 10.0 mi East 6.9 mph - N/A   Clear
5:56 PM 10.0 °F 0.4 °F 3.0 °F 73% 30.52 in 10.0 mi ENE 5.8 mph - N/A   Clear
6:56 PM 9.1 °F -3.0 °F 3.0 °F 76% 30.51 in 10.0 mi ENE 8.1 mph - N/A   Clear
7:56 PM 7.2 °F -8.1 °F 1.0 °F 76% 30.49 in 10.0 mi ENE 11.5 mph - N/A   Clear
8:56 PM 7.2 °F -8.9 °F 0.1 °F 73% 30.48 in 10.0 mi ENE 12.7 mph - N/A   Clear
9:56 PM 6.1 °F -12.2 °F -1.8 °F 70% 30.46 in 10.0 mi East 16.1 mph - N/A   Clear
10:56 PM 5.0 °F -13.6 °F -2.9 °F 70% 30.44 in 10.0 mi ENE 16.1 mph - N/A   Clear
11:56 PM 5.0 °F -12.3 °F -2.9 °F 70% 30.43 in 10.0 mi East 13.8 mph - N/A   Clear